Location: ICStars Ranch
(38.8297°N, 93.7687°W)
Time: 16:49:06
(UTC-05:00)

Daily predictions for brighter satellites

Satellite Brightness Start Highest point End
(mag) Time Altitude Azimuth Time Altitude Azimuth Time Altitude Azimuth
Meteor 2-4 Rocket 4.3 20:56:40 10° SSW 21:02:30 68° W 21:08:27 10° N
Cosmos 1626 Rocket 3.6 21:00:57 10° S 21:05:20 66° E 21:09:42 10° NNE
YAOGAN 11 4.1 21:01:26 10° SSE 21:05:46 77° ENE 21:10:04 10° N
deb Chang Zheng 4 3.9 21:02:43 10° NNE 21:06:56 46° E 21:11:07 10° S
Cosmos 1464 Rocket 4.2 21:03:18 10° N 21:09:28 81° W 21:15:39 10° S
H-2A R/B 3.1 21:06:04 10° S 21:10:00 73° WSW 21:13:59 10° NNW
Centaur D AC-28 3.6 21:09:20 10° WSW 21:11:59 15° SSW 21:14:18 10° SSE
Cosmos 1461 4.2 21:11:21 10° NW 21:15:15 37° WSW 21:18:58 10° S
PSLV R/B 3.9 21:12:57 10° W 21:16:26 58° N 21:19:56 10° ENE
Cosmos 1939 Rocket 3.5 21:13:15 10° SE 21:17:09 40° ENE 21:21:02 10° N
ATLAS 3B R/B 3.1 21:12:47 10° S 21:20:14 55° ESE 21:27:35 10° NE
Cosmos 1190 Rocket 4.5 21:16:27 10° S 21:21:23 41° ESE 21:26:21 10° NNE
Cosmos 1346 Rocket 4.1 21:19:42 10° SE 21:22:43 22° E 21:25:45 10° NE
SPOT 5 3.5 21:21:02 11° SE 21:24:50 33° ENE 21:28:43 10° N
CZ-4 SHROUD 4.3 21:25:30 13° SE 21:27:48 29° ENE 21:30:37 10° N
PSLV R/B 4.4 21:26:38 14° SE 21:28:46 28° ENE 21:31:30 10° NNE
Cosmos 2034 Rocket 4.3 21:25:09 10° N 21:31:30 73° W 21:37:45 10° S
H-2A R/B 4.2 21:36:02 10° ENE 21:36:43 10° ENE 21:37:25 10° NE
Cosmos 1666 4.5 21:33:43 10° NNW 21:37:13 32° W 21:40:42 10° SSW
Cosmos 2369 Rocket 2.4 21:34:27 10° NNW 21:40:03 60° ENE 21:44:34 16° SE
ERS-1 Rocket 3.4 21:38:31 10° S 21:43:28 63° WSW 21:48:29 10° NNW
COSMOS 2455 3.7 21:39:30 10° SW 21:45:21 54° WNW 21:51:16 10° NNE
SPOT 1/Viking Rocket 4.5 21:41:55 15° ESE 21:45:24 33° ENE 21:49:57 10° N
YAOGAN 6 3.9 21:43:54 17° ESE 21:45:49 27° ENE 21:49:00 10° NNE
Cosmos 1900 4.3 21:47:38 10° SSW 21:52:45 76° ESE 21:57:54 10° NNE
Cosmos 1758 Rocket 3.8 21:57:13 19° SSE 22:00:08 48° E 22:04:20 10° NNE
Envisat 3.0 21:57:18 14° S 22:01:45 81° WSW 22:06:51 10° NNW
GEOS 3 Rocket 4.1 21:59:26 16° SSE 22:03:32 56° WSW 22:08:41 10° NW
CZ-2C R/B 3.5 22:02:40 10° WSW 22:03:34 12° W 22:04:28 10° WNW
Cosmos 407 Rocket 3.4 21:59:49 10° SSW 22:05:05 83° ESE 22:10:20 10° NNE
USA 238 DEB 4.0 22:01:11 10° S 22:07:54 48° ESE 22:14:38 10° NE
USA 238 4.0 22:01:18 10° S 22:08:00 47° ESE 22:14:43 10° NE
SL-27 R/B 2.9 22:10:37 34° ESE 22:10:51 35° ESE 22:13:57 10° NE
Cosmos 1825 Rocket 4.0 22:11:14 10° SSW 22:15:38 62° W 22:20:02 10° N
Cosmos 2263 4.1 22:10:04 10° NNW 22:15:43 85° ENE 22:19:03 26° SSE
MetOp-A 4.1 22:12:57 21° SSE 22:16:40 89° WSW 22:22:03 10° NNW
UNK 4.4 22:16:41 10° NNE 22:22:14 78° WNW 22:28:03 10° SSW
COSMOS 2406 3.5 22:21:23 24° SSE 22:24:25 45° ESE 22:29:51 10° NE
Lacrosse 4 Rocket 2.8 22:20:47 10° SW 22:24:33 38° WNW 22:28:24 10° N
Cosmos 1954 Rocket 3.9 22:21:57 14° S 22:26:34 75° ESE 22:31:52 10° NNE
Cosmos 1943 Rocket 2.3 22:23:53 10° NNW 22:29:24 60° ENE 22:31:53 32° SE
Cosmos 2084 3.8 22:28:11 10° NNW 22:32:15 52° NE 22:33:35 37° ESE
ISS 0.0 22:30:58 10° NW 22:32:23 12° NNW 22:33:49 10° N
DELTA 2 DEB (DPAF) 4.5 22:32:10 37° ESE 22:33:32 51° ENE 22:37:54 10° N
H-2A R/B 4.4 22:31:48 10° SW 22:34:51 19° W 22:37:58 10° NW
SeaSat 1 2.4 22:32:37 32° SSE 22:34:55 78° WSW 22:39:52 10° NNW
CZ-4C R/B 3.6 22:36:09 43° ESE 22:37:04 54° ENE 22:40:58 10° N
Atlas Centaur 2 3.4 22:33:08 10° WSW 22:39:52 40° S 22:42:50 30° SSE
Landsat 7 4.0 22:41:38 40° SE 22:42:59 55° ENE 22:47:38 10° N
Kosmos-1675 3.6 22:47:09 32° SW 22:48:28 81° NW 22:56:30 10° NNE
Cosmos 1741 Rocket 4.0 22:49:48 42° SSE 22:51:21 59° ESE 22:56:36 10° NNE
Cosmos 1953 2.2 22:48:35 10° N 22:52:34 70° E 22:52:53 65° ESE
Cosmos 1092 Rocket 4.5 22:51:45 36° SE 22:53:30 44° E 22:59:23 10° NNE
CZ-4B R/B 4.5 22:48:58 10° N 22:53:52 46° WNW 22:58:51 10° SW
CZ-4 R/B 4.3 22:49:10 10° N 22:54:08 66° WNW 22:57:26 21° SSW
PSLV R/B 3.3 22:50:40 10° WNW 22:54:07 83° NW 22:54:07 83° NW
Geosat 4.0 22:49:52 10° NE 22:54:50 57° ESE 22:55:55 47° SSE
Terra 2.0 22:57:55 47° ESE 22:58:49 55° ENE 23:03:28 10° N
Spot 4 4.3 22:58:56 41° E 22:59:44 45° ENE 23:04:18 10° N
Nadezhda 4 Rocket 4.0 22:58:24 38° SSE 23:00:53 70° E 23:07:12 10° NNE
Cosmos 2221 4.5 22:58:21 10° NNE 23:00:54 16° ENE 23:00:54 16° ENE
ARGOS 3.5 22:59:31 34° SSW 23:01:49 61° WSW 23:07:12 10° NNW
ATLAS 5 CENTAUR R/B4.423:21:28ESE23:21:28ESE22:56:00SW
Cosmos 1842 4.0 23:00:59 35° SW 23:02:13 49° W 23:06:02 10° N
Cosmos-2242 3.2 22:59:38 10° NNW 23:04:02 70° W 23:04:55 53° SSW
Cosmos 1850 Rocket 3.9 23:04:58 42° SSW 23:06:49 86° ESE 23:12:03 10° NNE
Cosmos 1140 Rocket 3.7 23:06:28 26° SSW 23:09:24 70° WNW 23:14:38 10° NNE
ATLAS 3B R/B 4.4 23:04:19 10° WSW 23:11:18 36° NW 23:18:07 10° NNE
Cosmos 1570 Rocket 4.0 23:08:13 10° NNW 23:13:37 88° WSW 23:14:45 57° SSE
H-2A R/B 1.9 23:14:20 60° SSE 23:15:17 88° ENE 23:20:24 10° NNW
SL-8 R/B 3.9 23:13:17 10° NW 23:18:06 66° NNE 23:19:03 52° E
Lacrosse 5 4.5 23:15:57 10° NNW 23:18:41 14° NNE 23:21:25 10° NE
Cosmos 1607 4.1 23:16:51 11° SW 23:22:57 71° WNW 23:29:11 10° NNE
Cosmos 2369 Rocket 4.3 23:19:58 10° WNW 23:23:29 17° W 23:26:23 12° SW
NOSS 3-2 (A) 3.4 23:22:46 52° SSE 23:23:57 62° ESE 23:30:24 10° NE
USA 234 3.2 23:24:29 47° SE 23:26:39 85° SW 23:33:15 10° NW
Cosmos 614 Rocket 4.1 23:27:50 47° SW 23:29:17 73° WNW 23:34:31 10° NNE
Cosmos 1655 Rocket 4.3 23:33:11 46° ESE 23:33:55 48° E 23:39:53 10° NNE
Cosmos 1340 3.5 23:35:42 48° NNE 23:35:42 48° NNE 23:38:31 10° N
Cosmos 2344 4.4 23:35:51 30° ESE 23:35:51 30° ESE 23:42:36 10° NE
Cosmos 1544 3.9 23:33:29 10° N 23:36:27 52° NNW 23:36:27 52° NNW
CARTOSAT-1 4.2 23:39:08 47° W 23:39:09 47° W 23:43:21 10° NNW
Cosmos 2026 Rocket 4.0 23:39:36 53° ESE 23:40:11 55° E 23:46:05 10° NNE
Cosmos 2195 Rocket 4.4 23:40:35 58° SE 23:41:29 66° E 23:47:41 10° NNE
Meteor 2-5 Rocket 3.7 23:42:55 65° S 23:43:51 87° E 23:49:38 10° N
Okean 3 Rocket 3.7 23:45:27 72° NNW 23:45:27 72° NNW 23:49:29 10° N
CZ-4C R/B 2.0 23:48:42 72° SSW 23:49:17 88° ESE 23:55:12 10° NNE
Cosmos 1627 Rocket 4.3 23:52:53 67° SSE 23:53:44 82° E 23:59:53 10° N
Cosmos 1470 3.8 23:51:51 10° NNW 23:54:45 44° NW 23:54:45 44° NW
